,,Stat5,,Stat1,,Stat2,,Stat3,,Stat4,,Wind1,,Wind1,
time,status,PA1M_AVG,status,PR1M_SUM,status,RH1M_AVG,status,SR1M_AVG,status,TA1M_AVG,status,W1dAve1m,status,W1sAve1m,
2003-02-21, 00:00:00,VALID,919.5,VALID,0,VALID,99.5272,VALID,-0.0509425,VALID,20.4621,VALID,34,VALID,0.223684,
2003-02-21, 00:01:00,VALID,919.505,VALID,0,VALID,99.5107,VALID,-0.0169808,VALID,20.4656,VALID,34,VALID,0.21361,
2003-02-21, 00:02:00,VALID,919.493,VALID,0,VALID,99.5361,VALID,-0.0169808,VALID,20.4522,VALID,34,VALID,0.251367,
2003-02-21, 00:03:00,VALID,919.47,VALID,0,VALID,99.5221,VALID,0,VALID,20.446,VALID,27,VALID,0.53342,
2003-02-21, 00:04:00,VALID,919.442,VALID,0,VALID,99.517,VALID,0,VALID,20.4104,VALID,12,VALID,0.587946,
2003-02-21, 00:05:00,VALID,919.391,VALID,0,VALID,99.5183,VALID,0,VALID,20.3748,VALID,5,VALID,0.704127,
2003-02-21, 00:06:00,VALID,919.347,VALID,0,VALID,99.5069,VALID,0,VALID,20.3557,VALID,8,VALID,0.855569,
2003-02-21, 00:07:00,VALID,919.295,VALID,0,VALID,99.5081,VALID,-0.0169808,VALID,20.3296,VALID,11,VALID,0.81183,
2003-02-21, 00:08:00,VALID,919.271,VALID,0,VALID,99.5081,VALID,0,VALID,20.3177,VALID,19,VALID,0.81543,
2003-02-21, 00:09:00,VALID,919.242,VALID,0,VALID,99.5145,VALID,-0.0169808,VALID,20.2781,VALID,359,VALID,0.83941,
2003-02-21, 00:10:00,VALID,919.211,VALID,0,VALID,99.517,VALID,-0.0339617,VALID,20.2791,VALID,5,VALID,0.854384,
2003-02-21, 00:11:00,VALID,919.196,VALID,0,VALID,99.5183,VALID,-0.0339617,VALID,20.2498,VALID,14,VALID,0.944468,
2003-02-21, 00:12:00,VALID,919.172,VALID,0,VALID,99.5221,VALID,-0.0169808,VALID,20.2328,VALID,11,VALID,0.812099,
2003-02-21, 00:13:00,VALID,919.172,VALID,0,VALID,99.5183,VALID,-0.0169808,VALID,20.2296,VALID,9,VALID,0.892948,
2003-02-21, 00:14:00,VALID,919.176,VALID,0,VALID,99.5298,VALID,0.0169808,VALID,20.2264,VALID,9,VALID,0.728885,
2003-02-21, 00:15:00,VALID,919.187,VALID,0,VALID,99.5348,VALID,-0.0339617,VALID,20.2296,VALID,4,VALID,0.540179,
2003-02-21, 00:16:00,VALID,919.201,VALID,0,VALID,99.5298,VALID,-0.0169808,VALID,20.2525,VALID,22,VALID,0.509663,
2003-02-21, 00:17:00,VALID,919.186,VALID,0,VALID,99.5437,VALID,0,VALID,20.2423,VALID,48,VALID,0.608953,
2003-02-21, 00:18:00,VALID,919.177,VALID,0,VALID,99.5514,VALID,-0.0169808,VALID,20.2522,VALID,41,VALID,0.699695,
2003-02-21, 00:19:00,VALID,919.153,VALID,0,VALID,99.5488,VALID,0,VALID,20.2654,VALID,22,VALID,0.392578,
2003-02-21, 00:20:00,VALID,919.142,VALID,0,VALID,99.5603,VALID,0,VALID,20.2582,VALID,22,VALID,0.0382401,
2003-02-21, 00:21:00,VALID,919.134,VALID,0,VALID,99.5565,VALID,0,VALID,20.2592,VALID,22,VALID,0.0951891,
2003-02-21, 00:22:00,VALID,919.113,VALID,0,VALID,99.559,VALID,0,VALID,20.2358,VALID,22,VALID,0.256641,
2003-02-21, 00:23:00,VALID,919.097,VALID,0,VALID,99.559,VALID,-0.0169808,VALID,20.2132,VALID,22,VALID,0.204127,
2003-02-21, 00:24:00,VALID,919.092,VALID,0,VALID,99.5641,VALID,0,VALID,20.21,VALID,22,VALID,0.226116,
2003-02-21, 00:25:00,VALID,919.092,VALID,0,VALID,99.5577,VALID,-0.0169808,VALID,20.1975,VALID,24,VALID,0.327734,
2003-02-21, 00:26:00,VALID,919.087,VALID,0,VALID,99.5527,VALID,-0.0339617,VALID,20.1781,VALID,25,VALID,0.230469,
2003-02-21, 00:27:00,VALID,919.106,VALID,0,VALID,99.5501,VALID,-0.0169808,VALID,20.1684,VALID,26,VALID,0.341363,
2003-02-21, 00:28:00,VALID,919.085,VALID,0,VALID,99.5552,VALID,-0.0169808,VALID,20.1717,VALID,6,VALID,0.541266,
2003-02-21, 00:29:00,VALID,919.063,VALID,0,VALID,99.545,VALID,0,VALID,20.1294,VALID,343,VALID,0.713816,
2003-02-21, 00:30:00,VALID,919.063,VALID,0,VALID,99.5514,VALID,0,VALID,20.1068,VALID,332,VALID,0.458882,
2003-02-21, 00:31:00,VALID,919.06,VALID,0,VALID,99.5565,VALID,-0.0169808,VALID,20.1234,VALID,308,VALID,0.379645,
2003-02-21, 00:32:00,VALID,919.07,VALID,0,VALID,99.5692,VALID,0,VALID,20.1331,VALID,308,VALID,0.062934,
2003-02-21, 00:33:00,VALID,919.073,VALID,0,VALID,99.573,VALID,0,VALID,20.1329,VALID,308,VALID,0.229941,
2003-02-21, 00:34:00,VALID,919.064,VALID,0,VALID,99.5692,VALID,0,VALID,20.1461,VALID,318,VALID,0.1875,
2003-02-21, 00:35:00,VALID,919.073,VALID,0,VALID,99.5832,VALID,0,VALID,20.1622,VALID,332,VALID,0.0556891,
2003-02-21, 00:36:00,VALID,919.062,VALID,0,VALID,99.5768,VALID,0.0169808,VALID,20.1679,VALID,332,VALID,0.00440705,
2003-02-21, 00:37:00,VALID,919.045,VALID,0,VALID,99.5806,VALID,-0.0169808,VALID,20.1684,VALID,332,VALID,0.0584882,
2003-02-21, 00:38:00,VALID,919.033,VALID,0,VALID,99.5743,VALID,0,VALID,20.1555,VALID,332,VALID,0.0742188,
2003-02-21, 00:39:00,VALID,918.993,VALID,0,VALID,99.5755,VALID,0.0169808,VALID,20.1523,VALID,332,VALID,0,
2003-02-21, 00:40:00,VALID,918.959,VALID,0,VALID,99.5755,VALID,0.0169808,VALID,20.1485,VALID,336,VALID,0.0182292,
2003-02-21, 00:41:00,VALID,918.909,VALID,0,VALID,99.5768,VALID,0,VALID,20.152,VALID,17,VALID,0.28079,
2003-02-21, 00:42:00,VALID,918.888,VALID,0,VALID,99.5832,VALID,0.0169808,VALID,20.1453,VALID,30,VALID,0.526933,
2003-02-21, 00:43:00,VALID,918.856,VALID,0,VALID,99.5717,VALID,0,VALID,20.1458,VALID,33,VALID,0.278716,
2003-02-21, 00:44:00,VALID,918.86,VALID,0,VALID,99.5832,VALID,0.0169808,VALID,20.1488,VALID,41,VALID,0.118056,
2003-02-21, 00:45:00,VALID,918.862,VALID,0,VALID,99.5921,VALID,0.0339617,VALID,20.1585,VALID,41,VALID,0,
2003-02-21, 00:46:00,VALID,918.892,VALID,0,VALID,99.5933,VALID,0.0339617,VALID,20.1393,VALID,41,VALID,0,
2003-02-21, 00:47:00,VALID,918.888,VALID,0,VALID,99.5832,VALID,0.0169808,VALID,20.1359,VALID,41,VALID,0.0344172,
2003-02-21, 00:48:00,VALID,918.893,VALID,0,VALID,99.5972,VALID,0,VALID,20.11,VALID,12,VALID,0.147321,
2003-02-21, 00:49:00,VALID,918.91,VALID,0,VALID,99.5883,VALID,0.0509425,VALID,20.1062,VALID,4,VALID,0,
2003-02-21, 00:50:00,VALID,918.925,VALID,0,VALID,99.5908,VALID,0.0339617,VALID,20.1192,VALID,6,VALID,0.190995,
2003-02-21, 00:51:00,VALID,918.933,VALID,0,VALID,99.5997,VALID,0.0509425,VALID,20.11,VALID,117,VALID,0.26903,
2003-02-21, 00:52:00,VALID,918.923,VALID,0,VALID,99.601,VALID,0.0169808,VALID,20.1135,VALID,175,VALID,0.303906,
2003-02-21, 00:53:00,VALID,918.925,VALID,0,VALID,99.6111,VALID,0,VALID,20.1135,VALID,174,VALID,0.278783,
2003-02-21, 00:54:00,VALID,918.903,VALID,0,VALID,99.6124,VALID,0.0169808,VALID,20.1165,VALID,174,VALID,0.0627111,
2003-02-21, 00:55:00,VALID,918.886,VALID,0,VALID,99.62,VALID,0.0169808,VALID,20.1194,VALID,172,VALID,0.0448718,
2003-02-21, 00:56:00,VALID,918.855,VALID,0,VALID,99.6213,VALID,0,VALID,20.1361,VALID,69,VALID,0.0282452,
2003-02-21, 00:57:00,VALID,918.856,VALID,0,VALID,99.6213,VALID,0.0339617,VALID,20.1523,VALID,66,VALID,0.0174279,
2003-02-21, 00:58:00,VALID,918.838,VALID,0,VALID,99.62,VALID,0,VALID,20.1585,VALID,60,VALID,0.208705,
2003-02-21, 00:59:00,VALID,918.831,VALID,0,VALID,99.6315,VALID,0.0169808,VALID,20.1779,VALID,60,VALID,0.193164,
2003-02-21, 01:00:00,VALID,918.822,VALID,0,VALID,99.6315,VALID,0,VALID,20.1908,VALID,60,VALID,0.245877,
2003-02-21, 01:01:00,VALID,918.826,VALID,0,VALID,99.6137,VALID,0,VALID,20.1714,VALID,61,VALID,0.327691,
2003-02-21, 01:02:00,VALID,918.833,VALID,0,VALID,99.6137,VALID,0,VALID,20.1458,VALID,61,VALID,0.283361,
2003-02-21, 01:03:00,VALID,918.816,VALID,0,VALID,99.6251,VALID,0,VALID,20.145,VALID,61,VALID,0.341488,
2003-02-21, 01:04:00,VALID,918.815,VALID,0,VALID,99.6175,VALID,0,VALID,20.1652,VALID,61,VALID,0.278083,
2003-02-21, 01:05:00,VALID,918.802,VALID,0,VALID,99.6264,VALID,0.0169808,VALID,20.1682,VALID,61,VALID,0.233742,
2003-02-21, 01:06:00,VALID,918.786,VALID,0,VALID,99.6239,VALID,0.0169808,VALID,20.1717,VALID,60,VALID,0.470536,
2003-02-21, 01:07:00,VALID,918.756,VALID,0,VALID,99.6289,VALID,0.0169808,VALID,20.1488,VALID,41,VALID,0.585732,
2003-02-21, 01:08:00,VALID,918.742,VALID,0,VALID,99.6315,VALID,0.0509425,VALID,20.1453,VALID,23,VALID,0.822635,
2003-02-21, 01:09:00,VALID,918.708,VALID,0,VALID,99.6264,VALID,0.0339617,VALID,20.1165,VALID,13,VALID,0.784299,
2003-02-21, 01:10:00,VALID,918.693,VALID,0,VALID,99.6251,VALID,0.0509425,VALID,20.0779,VALID,8,VALID,0.451758,
2003-02-21, 01:11:00,VALID,918.672,VALID,0,VALID,99.62,VALID,0.0169808,VALID,20.0523,VALID,6,VALID,0.233964,
2003-02-21, 01:12:00,VALID,918.658,VALID,0,VALID,99.6239,VALID,0,VALID,20.0225,VALID,329,VALID,0.598067,
2003-02-21, 01:13:00,VALID,918.628,VALID,0,VALID,99.6289,VALID,0,VALID,20.0264,VALID,284,VALID,0.325195,
2003-02-21, 01:14:00,VALID,918.611,VALID,0,VALID,99.6277,VALID,0.0169808,VALID,20.0297,VALID,241,VALID,0.370793,
2003-02-21, 01:15:00,VALID,918.609,VALID,0,VALID,99.634,VALID,0,VALID,20.0424,VALID,221,VALID,0.383929,
2003-02-21, 01:16:00,VALID,918.619,VALID,0,VALID,99.6277,VALID,0,VALID,20.0521,VALID,204,VALID,0.353516,
2003-02-21, 01:17:00,VALID,918.642,VALID,0,VALID,99.6404,VALID,0.0339617,VALID,20.068,VALID,203,VALID,0.240668,
2003-02-21, 01:18:00,VALID,918.659,VALID,0,VALID,99.6429,VALID,0.0169808,VALID,20.0876,VALID,221,VALID,0.279514,
2003-02-21, 01:19:00,VALID,918.666,VALID,0,VALID,99.648,VALID,0,VALID,20.1038,VALID,224,VALID,0.180288,
2003-02-21, 01:20:00,VALID,918.662,VALID,0,VALID,99.6417,VALID,0,VALID,20.1165,VALID,224,VALID,0,
2003-02-21, 01:21:00,VALID,918.654,VALID,0,VALID,99.6404,VALID,0.0169808,VALID,20.1329,VALID,224,VALID,0.032278,
2003-02-21, 01:22:00,VALID,918.653,VALID,0,VALID,99.6378,VALID,0.0169808,VALID,20.1388,VALID,224,VALID,0.251689,
2003-02-21, 01:23:00,VALID,918.66,VALID,0,VALID,99.6391,VALID,0,VALID,20.1361,VALID,224,VALID,0.062066,
2003-02-21, 01:24:00,VALID,918.668,VALID,0,VALID,99.6455,VALID,0,VALID,20.1421,VALID,224,VALID,0,
2003-02-21, 01:25:00,VALID,918.655,VALID,0,VALID,99.6442,VALID,0,VALID,20.1717,VALID,224,VALID,0,
2003-02-21, 01:26:00,VALID,918.641,VALID,0,VALID,99.6378,VALID,0.0169808,VALID,20.1809,VALID,224,VALID,0,
2003-02-21, 01:27:00,VALID,918.616,VALID,0,VALID,99.6328,VALID,0.0169808,VALID,20.1846,VALID,224,VALID,0,
2003-02-21, 01:28:00,VALID,918.596,VALID,0,VALID,99.6429,VALID,0,VALID,20.1846,VALID,224,VALID,0,
2003-02-21, 01:29:00,VALID,918.566,VALID,0,VALID,99.6404,VALID,0,VALID,20.1712,VALID,224,VALID,0,
2003-02-21, 01:30:00,VALID,918.521,VALID,0,VALID,99.6442,VALID,0,VALID,20.198,VALID,224,VALID,0,
2003-02-21, 01:31:00,VALID,918.483,VALID,0,VALID,99.6417,VALID,0,VALID,20.197,VALID,224,VALID,0,
2003-02-21, 01:32:00,VALID,918.435,VALID,0,VALID,99.6455,VALID,0,VALID,20.204,VALID,224,VALID,0,
2003-02-21, 01:33:00,VALID,918.405,VALID,0,VALID,99.6404,VALID,0,VALID,20.2102,VALID,224,VALID,0.00575658,
2003-02-21, 01:34:00,VALID,918.362,VALID,0,VALID,99.6455,VALID,0.0169808,VALID,20.2102,VALID,341,VALID,0.30701,
2003-02-21, 01:35:00,VALID,918.326,VALID,0,VALID,99.6468,VALID,0,VALID,20.2266,VALID,357,VALID,0.298394,
2003-02-21, 01:36:00,VALID,918.328,VALID,0,VALID,99.6455,VALID,0,VALID,20.243,VALID,358,VALID,0.240885,
2003-02-21, 01:37:00,VALID,918.324,VALID,0,VALID,99.6468,VALID,0,VALID,20.2423,VALID,360,VALID,0.511719,
2003-02-21, 01:38:00,VALID,918.309,VALID,0,VALID,99.6493,VALID,0,VALID,20.2361,VALID,1,VALID,0.630279,
2003-02-21, 01:39:00,VALID,918.307,VALID,0,VALID,99.6493,VALID,0,VALID,20.2229,VALID,2,VALID,0.714509,
2003-02-21, 01:40:00,VALID,918.304,VALID,0,VALID,99.6429,VALID,0,VALID,20.2005,VALID,5,VALID,0.68817,
2003-02-21, 01:41:00,VALID,918.292,VALID,0,VALID,99.6404,VALID,0.0169808,VALID,20.1878,VALID,4,VALID,0.368421,
2003-02-21, 01:42:00,VALID,918.277,VALID,0,VALID,99.634,VALID,0.0169808,VALID,20.1655,VALID,5,VALID,0.329928,
2003-02-21, 01:43:00,VALID,918.247,VALID,0,VALID,99.634,VALID,0,VALID,20.1426,VALID,4,VALID,0.337891,
2003-02-21, 01:44:00,VALID,918.212,VALID,0,VALID,99.6442,VALID,0,VALID,20.1264,VALID,3,VALID,0.609169,
2003-02-21, 01:45:00,VALID,918.171,VALID,0,VALID,99.6468,VALID,-0.0169808,VALID,20.1162,VALID,8,VALID,1.00338,
2003-02-21, 01:46:00,VALID,918.118,VALID,0,VALID,99.6417,VALID,0,VALID,20.1229,VALID,9,VALID,1.22075,
2003-02-21, 01:47:00,VALID,918.096,VALID,0,VALID,99.6442,VALID,0.0339617,VALID,20.1038,VALID,10,VALID,1.05729,
2003-02-21, 01:48:00,VALID,918.094,VALID,0,VALID,99.6378,VALID,0,VALID,20.1137,VALID,3,VALID,0.68149,
2003-02-21, 01:49:00,VALID,918.111,VALID,0,VALID,99.6417,VALID,0,VALID,20.1102,VALID,26,VALID,0.909821,
2003-02-21, 01:50:00,VALID,918.122,VALID,0,VALID,99.6455,VALID,-0.0339617,VALID,20.1202,VALID,12,VALID,0.7125,
2003-02-21, 01:51:00,VALID,918.133,VALID,0,VALID,99.6468,VALID,-0.0169808,VALID,20.1227,VALID,11,VALID,0.408203,
2003-02-21, 01:52:00,VALID,918.144,VALID,0,VALID,99.6595,VALID,0,VALID,20.1234,VALID,3,VALID,0.900825,
2003-02-21, 01:53:00,VALID,918.157,VALID,0,VALID,99.6506,VALID,0,VALID,20.0936,VALID,8,VALID,1.09903,
2003-02-21, 01:54:00,VALID,918.156,VALID,0,VALID,99.6569,VALID,0,VALID,20.0938,VALID,322,VALID,0.671875,
2003-02-21, 01:55:00,VALID,918.152,VALID,0,VALID,99.6595,VALID,0,VALID,20.0712,VALID,335,VALID,0.98353,
2003-02-21, 01:56:00,VALID,918.165,VALID,0,VALID,99.6582,VALID,0,VALID,20.0819,VALID,350,VALID,0.751056,
2003-02-21, 01:57:00,VALID,918.177,VALID,0,VALID,99.6671,VALID,0,VALID,20.0744,VALID,5,VALID,0.159598,
2003-02-21, 01:58:00,VALID,918.189,VALID,0,VALID,99.6671,VALID,0.0339617,VALID,20.0973,VALID,25,VALID,0.175987,
2003-02-21, 01:59:00,VALID,918.189,VALID,0,VALID,99.676,VALID,0,VALID,20.0933,VALID,72,VALID,0.0217483,
2003-02-21, 02:00:00,VALID,918.178,VALID,0,VALID,99.6671,VALID,0.0169808,VALID,20.1204,VALID,56,VALID,0.136433,
2003-02-21, 02:01:00,VALID,918.15,VALID,0,VALID,99.6722,VALID,0,VALID,20.1296,VALID,28,VALID,0.545508,
2003-02-21, 02:02:00,VALID,918.141,VALID,0,VALID,99.6747,VALID,0,VALID,20.1528,VALID,16,VALID,0.496299,
2003-02-21, 02:03:00,VALID,918.134,VALID,0,VALID,99.6735,VALID,0.0169808,VALID,20.1259,VALID,351,VALID,0.383018,
2003-02-21, 02:04:00,VALID,918.116,VALID,0,VALID,99.6747,VALID,0.0169808,VALID,20.1192,VALID,16,VALID,0.631055,
2003-02-21, 02:05:00,VALID,918.093,VALID,0,VALID,99.6684,VALID,0,VALID,20.0971,VALID,11,VALID,1.22596,
2003-02-21, 02:06:00,VALID,918.063,VALID,0,VALID,99.662,VALID,-0.0849042,VALID,20.0921,VALID,20,VALID,1.20201,
2003-02-21, 02:07:00,VALID,918.054,VALID,0,VALID,99.6646,VALID,-0.101885,VALID,20.1113,VALID,356,VALID,0.930273,
2003-02-21, 02:08:00,VALID,918.032,VALID,0,VALID,99.6709,VALID,-0.101885,VALID,20.1021,VALID,22,VALID,0.964193,
2003-02-21, 02:09:00,VALID,918.03,VALID,0,VALID,99.6658,VALID,-0.0849042,VALID,20.0924,VALID,6,VALID,0.866319,
2003-02-21, 02:10:00,VALID,918.002,VALID,0,VALID,99.6646,VALID,-0.0679233,VALID,20.072,VALID,8,VALID,0.592348,
2003-02-21, 02:11:00,VALID,917.967,VALID,0,VALID,99.6747,VALID,-0.101885,VALID,20.0822,VALID,8,VALID,0.250822,
2003-02-21, 02:12:00,VALID,917.932,VALID,0,VALID,99.6735,VALID,-0.101885,VALID,20.0921,VALID,8,VALID,0.0750411,
2003-02-21, 02:13:00,VALID,917.875,VALID,0,VALID,99.676,VALID,-0.0849042,VALID,20.0789,VALID,8,VALID,0.0701014,
2003-02-21, 02:14:00,VALID,917.827,VALID,0,VALID,99.6849,VALID,-0.101885,VALID,20.0864,VALID,8,VALID,0.167101,
2003-02-21, 02:15:00,VALID,917.787,VALID,0,VALID,99.676,VALID,-0.101885,VALID,20.066,VALID,8,VALID,0,
2003-02-21, 02:16:00,VALID,917.779,VALID,0,VALID,99.6735,VALID,-0.118866,VALID,20.0702,VALID,8,VALID,0,
2003-02-21, 02:17:00,VALID,917.799,VALID,0,VALID,99.676,VALID,-0.118866,VALID,20.063,VALID,8,VALID,0,
2003-02-21, 02:18:00,VALID,917.838,VALID,0,VALID,99.6785,VALID,-0.118866,VALID,20.0702,VALID,8,VALID,0.0953526,
2003-02-21, 02:19:00,VALID,917.875,VALID,0,VALID,99.6722,VALID,-0.101885,VALID,20.0628,VALID,265,VALID,0.352196,
2003-02-21, 02:20:00,VALID,917.917,VALID,0,VALID,99.6747,VALID,-0.0849042,VALID,20.0665,VALID,248,VALID,0.101563,
2003-02-21, 02:21:00,VALID,917.923,VALID,0,VALID,99.6824,VALID,0.0169808,VALID,20.062,VALID,249,VALID,0.0739183,
2003-02-21, 02:22:00,VALID,917.92,VALID,0,VALID,99.676,VALID,0.0169808,VALID,20.062,VALID,249,VALID,0.00901442,
2003-02-21, 02:23:00,VALID,917.916,VALID,0,VALID,99.6811,VALID,0,VALID,20.068,VALID,249,VALID,0,
2003-02-21, 02:24:00,VALID,917.903,VALID,0,VALID,99.6709,VALID,0,VALID,20.0779,VALID,326,VALID,0.373355,
2003-02-21, 02:25:00,VALID,917.883,VALID,0,VALID,99.6849,VALID,0.0339617,VALID,20.0777,VALID,19,VALID,0.921242,
2003-02-21, 02:26:00,VALID,917.846,VALID,0,VALID,99.6773,VALID,-0.0169808,VALID,20.0943,VALID,21,VALID,1.19423,
2003-02-21, 02:27:00,VALID,917.813,VALID,0,VALID,99.69,VALID,0.0339617,VALID,20.0709,VALID,31,VALID,0.94987,
2003-02-21, 02:28:00,VALID,917.757,VALID,0,VALID,99.6798,VALID,0,VALID,20.0774,VALID,32,VALID,1.13507,
2003-02-21, 02:29:00,VALID,917.735,VALID,0,VALID,99.6836,VALID,0,VALID,20.0386,VALID,49,VALID,1.10747,
2003-02-21, 02:30:00,VALID,917.708,VALID,0,VALID,99.6773,VALID,0,VALID,20.0302,VALID,47,VALID,0.877009,
2003-02-21, 02:31:00,VALID,917.705,VALID,0,VALID,99.6798,VALID,0,VALID,19.9839,VALID,54,VALID,0.860937,
2003-02-21, 02:32:00,VALID,917.721,VALID,0,VALID,99.6798,VALID,0.0169808,VALID,19.9618,VALID,66,VALID,0.559005,
2003-02-21, 02:33:00,VALID,917.738,VALID,0,VALID,99.6824,VALID,0,VALID,19.9456,VALID,47,VALID,0.201122,
2003-02-21, 02:34:00,VALID,917.761,VALID,0,VALID,99.6874,VALID,0,VALID,19.9362,VALID,48,VALID,0.00820312,
2003-02-21, 02:35:00,VALID,917.764,VALID,0,VALID,99.6824,VALID,0.0509425,VALID,19.913,VALID,48,VALID,0.102179,
2003-02-21, 02:36:00,VALID,917.769,VALID,0,VALID,99.6785,VALID,0,VALID,19.9038,VALID,48,VALID,0.046875,
2003-02-21, 02:37:00,VALID,917.778,VALID,0,VALID,99.6874,VALID,-0.0339617,VALID,19.9009,VALID,49,VALID,0.117989,
2003-02-21, 02:38:00,VALID,917.798,VALID,0,VALID,99.6925,VALID,-0.0169808,VALID,19.8912,VALID,100,VALID,0.298277,
2003-02-21, 02:39:00,VALID,917.805,VALID,0,VALID,99.6925,VALID,0,VALID,19.8909,VALID,104,VALID,0.0108173,
2003-02-21, 02:40:00,VALID,917.836,VALID,0,VALID,99.6976,VALID,0,VALID,19.878,VALID,104,VALID,0,
2003-02-21, 02:41:00,VALID,917.854,VALID,0,VALID,99.7002,VALID,-0.0339617,VALID,19.878,VALID,48,VALID,0.133984,
2003-02-21, 02:42:00,VALID,917.842,VALID,0,VALID,99.7027,VALID,-0.0169808,VALID,19.871,VALID,350,VALID,0.27908,
2003-02-21, 02:43:00,VALID,917.834,VALID,0,VALID,99.7103,VALID,-0.0169808,VALID,19.8651,VALID,350,VALID,0.219618,
2003-02-21, 02:44:00,VALID,917.829,VALID,0,VALID,99.7065,VALID,0,VALID,19.8651,VALID,350,VALID,0.0073902,
2003-02-21, 02:45:00,VALID,917.833,VALID,0,VALID,99.7014,VALID,-0.0169808,VALID,19.8646,VALID,350,VALID,0,
2003-02-21, 02:46:00,VALID,917.842,VALID,0,VALID,99.7078,VALID,-0.0169808,VALID,19.8914,VALID,350,VALID,0.133657,
2003-02-21, 02:47:00,VALID,917.83,VALID,0,VALID,99.7091,VALID,-0.0169808,VALID,19.9073,VALID,341,VALID,0.135346,
2003-02-21, 02:48:00,VALID,917.846,VALID,0,VALID,99.7116,VALID,0,VALID,19.9165,VALID,232,VALID,0.343527,
2003-02-21, 02:49:00,VALID,917.848,VALID,0,VALID,99.7116,VALID,-0.0169808,VALID,19.93,VALID,232,VALID,0.0949836,
2003-02-21, 02:50:00,VALID,917.831,VALID,0,VALID,99.7116,VALID,-0.0339617,VALID,19.9526,VALID,232,VALID,0,
2003-02-21, 02:51:00,VALID,917.826,VALID,0,VALID,99.718,VALID,-0.0509425,VALID,19.9553,VALID,232,VALID,0.0466845,
2003-02-21, 02:52:00,VALID,917.809,VALID,0,VALID,99.7103,VALID,-0.0509425,VALID,19.9817,VALID,233,VALID,0.200781,
2003-02-21, 02:53:00,VALID,917.778,VALID,0,VALID,99.7129,VALID,-0.0339617,VALID,20.0043,VALID,233,VALID,0.0962171,
2003-02-21, 02:54:00,VALID,917.742,VALID,0,VALID,99.7218,VALID,0,VALID,20.017,VALID,248,VALID,0.0573602,
2003-02-21, 02:55:00,VALID,917.689,VALID,0,VALID,99.704,VALID,0,VALID,20.0235,VALID,308,VALID,0.0683594,
2003-02-21, 02:56:00,VALID,917.67,VALID,0,VALID,99.7192,VALID,-0.0169808,VALID,20.0003,VALID,307,VALID,0,
2003-02-21, 02:57:00,VALID,917.66,VALID,0,VALID,99.7116,VALID,-0.0169808,VALID,19.9941,VALID,308,VALID,0,
2003-02-21, 02:58:00,VALID,917.659,VALID,0,VALID,99.6989,VALID,-0.0339617,VALID,19.9849,VALID,307,VALID,0,
2003-02-21, 02:59:00,VALID,917.67,VALID,0,VALID,99.7027,VALID,-0.0169808,VALID,19.9852,VALID,308,VALID,0,
2003-02-21, 03:00:00,VALID,917.65,VALID,0,VALID,99.704,VALID,0,VALID,19.975,VALID,348,VALID,0.29145,
2003-02-21, 03:01:00,VALID,917.628,VALID,0,VALID,99.6951,VALID,-0.0339617,VALID,19.9817,VALID,5,VALID,0.569311,
2003-02-21, 03:02:00,VALID,917.618,VALID,0,VALID,99.7078,VALID,-0.0339617,VALID,19.9847,VALID,25,VALID,0.460938,
2003-02-21, 03:03:00,VALID,917.61,VALID,0,VALID,99.7052,VALID,-0.0169808,VALID,19.9849,VALID,34,VALID,0.0275493,
2003-02-21, 03:04:00,VALID,917.606,VALID,0,VALID,99.7154,VALID,-0.0169808,VALID,19.9683,VALID,34,VALID,0,
2003-02-21, 03:05:00,VALID,917.603,VALID,0,VALID,99.7103,VALID,0,VALID,19.9852,VALID,34,VALID,0.0457899,
2003-02-21, 03:06:00,VALID,917.614,VALID,0,VALID,99.7103,VALID,0,VALID,19.9949,VALID,34,VALID,0,
2003-02-21, 03:07:00,VALID,917.61,VALID,0,VALID,99.7141,VALID,-0.0169808,VALID,20.014,VALID,34,VALID,0,
2003-02-21, 03:08:00,VALID,917.629,VALID,0,VALID,99.7205,VALID,-0.0169808,VALID,19.9973,VALID,34,VALID,0.0252404,
2003-02-21, 03:09:00,VALID,917.635,VALID,0,VALID,99.7141,VALID,-0.0339617,VALID,19.9946,VALID,34,VALID,0.0741186,
2003-02-21, 03:10:00,VALID,917.634,VALID,0,VALID,99.7116,VALID,-0.0509425,VALID,19.9979,VALID,293,VALID,0.262458,
2003-02-21, 03:11:00,VALID,917.624,VALID,0,VALID,99.7116,VALID,-0.0169808,VALID,19.9623,VALID,217,VALID,0.352796,
2003-02-21, 03:12:00,VALID,917.598,VALID,0,VALID,99.7192,VALID,-0.0339617,VALID,19.9464,VALID,209,VALID,0.358774,
2003-02-21, 03:13:00,VALID,917.582,VALID,0,VALID,99.7154,VALID,-0.0509425,VALID,19.914,VALID,184,VALID,0.448918,
2003-02-21, 03:14:00,VALID,917.558,VALID,0,VALID,99.7129,VALID,-0.0849042,VALID,19.8882,VALID,186,VALID,0.39614,
2003-02-21, 03:15:00,VALID,917.559,VALID,0,VALID,99.718,VALID,-0.0339617,VALID,19.8489,VALID,172,VALID,0.769737,
2003-02-21, 03:16:00,VALID,917.549,VALID,0,VALID,99.7154,VALID,-0.0339617,VALID,19.8566,VALID,170,VALID,0.50359,
2003-02-21, 03:17:00,VALID,917.549,VALID,0,VALID,99.7129,VALID,-0.0679233,VALID,19.8499,VALID,154,VALID,0.498047,
2003-02-21, 03:18:00,VALID,917.539,VALID,0,VALID,99.7269,VALID,-0.0169808,VALID,19.8397,VALID,137,VALID,0.698568,
2003-02-21, 03:19:00,VALID,917.514,VALID,0,VALID,99.7319,VALID,-0.0679233,VALID,19.8462,VALID,132,VALID,0.818668,
2003-02-21, 03:20:00,VALID,917.497,VALID,0,VALID,99.7319,VALID,-0.0339617,VALID,19.8521,VALID,141,VALID,1.1761,
2003-02-21, 03:21:00,VALID,917.48,VALID,0,VALID,99.7218,VALID,0.0679233,VALID,19.8544,VALID,130,VALID,1.17567,
2003-02-21, 03:22:00,VALID,917.473,VALID,0,VALID,99.7243,VALID,0.0679233,VALID,19.8447,VALID,142,VALID,1.06987,
2003-02-21, 03:23:00,VALID,917.463,VALID,0,VALID,99.7281,VALID,0.0849042,VALID,19.8608,VALID,145,VALID,0.683799,
2003-02-21, 03:24:00,VALID,917.041,VALID,0,VALID,99.7256,VALID,0.0339617,VALID,19.8544,VALID,137,VALID,0.639223,
2003-02-21, 03:25:00,VALID,917.462,VALID,0,VALID,99.7218,VALID,0.0169808,VALID,19.8511,VALID,151,VALID,0.76875,
2003-02-21, 03:26:00,VALID,917.46,VALID,0,VALID,99.7269,VALID,0.101885,VALID,19.8511,VALID,148,VALID,1.29502,
2003-02-21, 03:27:00,VALID,917.426,VALID,0,VALID,99.7256,VALID,0.0509425,VALID,19.8414,VALID,145,VALID,1.60705,
2003-02-21, 03:28:00,VALID,917.436,VALID,0,VALID,99.7294,VALID,0.0509425,VALID,19.8382,VALID,154,VALID,1.31931,
2003-02-21, 03:29:00,VALID,917.426,VALID,0,VALID,99.7269,VALID,0.0339617,VALID,19.8516,VALID,146,VALID,1.27965,
2003-02-21, 03:30:00,VALID,917.402,VALID,0,VALID,99.7319,VALID,0.0509425,VALID,19.835,VALID,142,VALID,1.52564,
2003-02-21, 03:31:00,VALID,917.392,VALID,0,VALID,99.7294,VALID,0.0679233,VALID,19.8379,VALID,136,VALID,1.58571,
2003-02-21, 03:32:00,VALID,917.402,VALID,0,VALID,99.7243,VALID,0.0509425,VALID,19.8514,VALID,124,VALID,1.1582,
2003-02-21, 03:33:00,VALID,917.401,VALID,0,VALID,99.723,VALID,0.0509425,VALID,19.8377,VALID,138,VALID,1.3941,
2003-02-21, 03:34:00,VALID,917.398,VALID,0,VALID,99.7256,VALID,0.0849042,VALID,19.8479,VALID,135,VALID,0.916884,
2003-02-21, 03:35:00,VALID,917.399,VALID,0,VALID,99.7307,VALID,0.0169808,VALID,19.8444,VALID,147,VALID,0.813133,
2003-02-21, 03:36:00,VALID,917.413,VALID,0,VALID,99.7256,VALID,-0.0169808,VALID,19.8586,VALID,120,VALID,0.822574,
2003-02-21, 03:37:00,VALID,917.418,VALID,0,VALID,99.7358,VALID,-0.0169808,VALID,19.8626,VALID,129,VALID,1.04856,
2003-02-21, 03:38:00,VALID,917.401,VALID,0,VALID,99.737,VALID,-0.0169808,VALID,19.8457,VALID,135,VALID,0.570946,
2003-02-21, 03:39:00,VALID,917.399,VALID,0,VALID,99.7307,VALID,0,VALID,19.8521,VALID,147,VALID,1.09286,